Regional Weather Roundup
Issued by NWS Portland, ME

Current Version | Previous Version | Text Only | Print | Product List | Glossary Off
Versions: 1 2 3 4 5 6 7 8 9 10 11 12 13 14 15 16 17 18 19 20 21 22 23 24 25 26 27 28 29 30 31 32 33 34 35 36 37 38 39 40 41 42 43 44 45 46 47 48 49 50
000 ASUS41 KGYX 202310 RWRGYX WEATHER ROUNDUP FOR MAINE AND NEW HAMPSHIRE NATIONAL WEATHER SERVICE GRAY ME 700 PM EDT SAT OCT 20 2018 MEZ002-005-006-010-012-015-018-020-021-024-026-027-029-210000- MAINE CITY SKY/WX TMP DP RH WIND PRES REMARKS PORTLAND FAIR 56 36 47 SW6 29.52R SANFORD FAIR 45 40 82 W3 29.54R BAR HARBOR FAIR 53 49 86 SW7 29.50R WISCASSET FAIR 47 42 83 CALM 29.52R ROCKLAND FAIR 53 48 83 SW6 29.51R FRYEBURG FAIR 46 33 60 W5 29.53R LEWISTONAUBURN FAIR 53 34 48 SW7 29.51R AUGUSTA FAIR 53 39 59 SW5 29.50R WATERVILLE FAIR 50 39 66 CALM 29.47R BANGOR FAIR 54 40 59 S5 29.49R GREENVILLE N/A 49 29 46 NW10G18 29.47R MILLINOCKET FAIR 54 30 40 W7G17 29.48R HOULTON FAIR 44 38 79 CALM 29.44R PRESQUE ISLE FAIR 52 30 43 W10 29.45R FRENCHVILLE FAIR 48 33 56 SW15G25 29.42R CARIBOU FAIR 51 30 44 W15G26 29.43R $$ NHZ002-005-008-009-011-012-014-210000- NEW HAMPSHIRE CITY SKY/WX TMP DP RH WIND PRES REMARKS PORTSMOUTH PTCLDY 53 40 60 S5 29.52R ROCHESTER FAIR 52 42 69 CALM 29.53R NASHUA FAIR 51 45 79 CALM 29.56R MANCHESTER FAIR 56 40 55 SW6 29.54R CONCORD FAIR 52 36 54 W5 29.54R LACONIA FAIR 47 38 71 CALM 29.54R PLYMOUTH FAIR 47 33 56 CALM 29.54R BERLIN FAIR 50 28 42 VRB3 29.51R WHITEFIELD FAIR 48 32 53 SW3 29.52R JAFFREY FAIR 49 41 74 S3 29.57R KEENE CLOUDY 50 42 74 S5 29.57R LEBANON FAIR 44 35 70 CALM 29.55R MT WASHINGTON MOCLDY 27 21 80 W38 N/A WCI 9 $$ VTZ005-007-008-210000- VERMONT CITY SKY/WX TMP DP RH WIND PRES REMARKS ST JOHNSBURY N/A 48 31 51 MISG 29.52R MONTPELIER FAIR 51 28 41 W6 29.58R BURLINGTON MOCLDY 55 31 39 W9 29.56R $$ MAZ007-012-024-CTZ003-RIZ002-NYZ038-NYZ072-210000- SOUTHERN NEW ENGLAND AND NY CITY SKY/WX TMP DP RH WIND PRES REMARKS BOSTON FAIR 59 41 51 W9 29.57R WORCESTER FAIR 46 43 89 W7 29.58R NANTUCKET MOCLDY 58 52 80 W10 29.60R PROVIDENCE FAIR 56 44 64 NW6 29.60R HARTFORD FAIR 51 43 74 SW3 29.60R ALBANY LGT RAIN 53 38 56 W7 29.60R NEW YORK CITY FAIR 62 41 46 W6 29.60F $$ ANZ081-ANZ082-ANZ150-NHZ014-MEZ023>029-210000- COASTAL MARINE OBSERVATIONS STATION/POSITION TIME TEMP WIND PRES WAVE AIR SEA DIR/SP/G HT/PER (UTC) (F) (DEG/KT/KT) (MB) (FT/S) MOUNT DESERT ROC 2300 54 200/ 16/ 18 999.4R MATINICUS ROCK 2200 55 220/ 17/ 18 998.8S ISLE OF SHOALS 2200 58 240/ 13/ 14 999.5R JEFFREYS LEDGE 2206 55 N/A 3/ 5 $$ .............KEY.............. WCI - WIND CHILL TC - TEMPERATURE IN CELSIUS VSB - VISIBILITY IN MILES HX - HEAT INDEX FAIR- INDICATES FEW OR NO CLOUDS BELOW 12,000 FT, WITH NO SIGNIFICANT WEATHER AND/OR OBSTRUCTIONS TO VISIBILITY.

USA.gov is the U.S. government's official web portal to all federal, state and local government web resources and services.